sat.trackr.live / text

‹ back to catalog

STARLINK-11728 [DTC]

NORAD 64323 · 2025-124G

PAYLOAD ACTIVE UNKNOWN

§ Identity

Operator
Country
US
Launch date
2025-06-10
Launch site
AFETR
Launch vehicle
Mass (kg)
RCS (m²)

Purposes: comms

External: N2YO · Heavens-Above · Gunter

§ Orbital elements

Epoch: 2026-09-20T19:04:33.466656Z

Period
91.67 min
Inclination
43.0007°
Eccentricity
0.0001554
Mean motion
15.70917305 rev/d
Perigee alt
355.2 km
Apogee alt
357.3 km
Semi-major
6,734.4 km
B*
1.2257e-3
RAAN
292.8042°
Arg perigee
281.3699°
Mean anomaly
78.6994°
Rev number
7,352

§ Raw data

STARLINK-11728 [DTC]1 64323U 25124G   26263.79483179  .00160417  00000+0  12257-2 0  99962 64323  43.0007 292.8042 0001554 281.3699  78.6994 15.70917305 73522

JSON: /api/v1/satellites/64323 · /tle

For live sub-satellite position, see the globe view (requires WebGL).

§ Visibility from observer

Set your observer location to see the next 7 days of passes ≥ 10°. The values pass through the URL so the page stays shareable.

No JS? Fill the form by hand. The geolocation button needs JavaScript.